Station Historical Data
Daily Summary for August 29, 2017 Units:  English    Metric   Both
Next Day »
Daily Weekly Monthly Yearly Custom
  High: Low: Average:
Temperature: 97.5 °F 77.3 °F 84.9 °F
Dew Point: 58.9 °F 41.8 °F 49.2 °F
Humidity: 45% 20% 30%
Wind Speed: 16.0mph 0.0mph 3.3mph
Wind Gust: 21.0mph - -
Wind- - SSE
Pressure: 29.83 in 29.76 in -
Precipitation: 0.00 in    
Historical Graphs
 
 
Tabular Data for August 29, 2017
Time Temperature Dew Point Pressure Wind Wind Speed Wind Gust Humidity Rainfall Rate (Hourly) solar Conditions
00:02 81.1 °F 43.0 °F 29.80 in Calm   14.0 mph 26% 0.00 in 0.00 W/m2
00:07 81.0 °F 42.9 °F 29.80 in East 4.0 mph 13.0 mph 26% 0.00 in 0.00 W/m2
00:12 81.0 °F 42.9 °F 29.80 in East 7.0 mph 13.0 mph 26% 0.00 in 0.00 W/m2
00:18 81.0 °F 42.9 °F 29.80 in ESE 6.0 mph 15.0 mph 26% 0.00 in 0.00 W/m2
00:23 80.9 °F 42.8 °F 29.80 in Calm   13.0 mph 26% 0.00 in 0.00 W/m2
00:33 80.8 °F 42.8 °F 29.80 in ESE 4.0 mph 9.0 mph 26% 0.00 in 0.00 W/m2
00:38 80.8 °F 42.8 °F 29.80 in ESE 5.0 mph 11.0 mph 26% 0.00 in 0.00 W/m2
00:43 80.7 °F 42.7 °F 29.80 in Calm   14.0 mph 26% 0.00 in 0.00 W/m2
00:48 80.7 °F 42.7 °F 29.80 in East 4.0 mph 11.0 mph 26% 0.00 in 0.00 W/m2
00:53 80.6 °F 42.6 °F 29.80 in Calm   14.0 mph 26% 0.00 in 0.00 W/m2
00:58 80.6 °F 42.6 °F 29.80 in East 5.0 mph 13.0 mph 26% 0.00 in 0.00 W/m2
01:03 80.6 °F 42.6 °F 29.80 in Calm   13.0 mph 26% 0.00 in 0.00 W/m2
01:08 80.5 °F 42.5 °F 29.80 in ESE 2.0 mph 13.0 mph 26% 0.00 in 0.00 W/m2
01:13 80.5 °F 42.5 °F 29.80 in Calm   11.0 mph 26% 0.00 in 0.00 W/m2
01:18 80.5 °F 42.5 °F 29.80 in ESE 5.0 mph 15.0 mph 26% 0.00 in 0.00 W/m2
01:23 80.4 °F 42.4 °F 29.80 in ESE 1.0 mph 15.0 mph 26% 0.00 in 0.00 W/m2
01:28 80.4 °F 42.4 °F 29.80 in ESE 1.0 mph 12.0 mph 26% 0.00 in 0.00 W/m2
01:33 80.3 °F 42.3 °F 29.80 in East 7.0 mph 14.0 mph 26% 0.00 in 0.00 W/m2
01:38 80.3 °F 42.3 °F 29.80 in Calm   14.0 mph 26% 0.00 in 0.00 W/m2
01:43 80.3 °F 42.3 °F 29.80 in ESE 6.0 mph 16.0 mph 26% 0.00 in 0.00 W/m2
01:48 80.3 °F 42.3 °F 29.80 in East 7.0 mph 16.0 mph 26% 0.00 in 0.00 W/m2
01:49 80.2 °F 42.2 °F 29.80 in Calm   16.0 mph 26% 0.00 in 0.00 W/m2
01:54 80.2 °F 42.2 °F 29.80 in East 8.0 mph 18.0 mph 26% 0.00 in 0.00 W/m2
01:59 80.2 °F 42.2 °F 29.80 in ESE 11.0 mph 14.0 mph 26% 0.00 in 0.00 W/m2
02:04 80.2 °F 42.2 °F 29.80 in ESE 8.0 mph 14.0 mph 26% 0.00 in 0.00 W/m2
02:09 80.2 °F 42.2 °F 29.80 in East 5.0 mph 15.0 mph 26% 0.00 in 0.00 W/m2
02:14 80.2 °F 42.2 °F 29.80 in ESE 12.0 mph 15.0 mph 26% 0.00 in 0.00 W/m2
02:19 80.2 °F 42.2 °F 29.80 in ESE 6.0 mph 13.0 mph 26% 0.00 in 0.00 W/m2
02:24 80.2 °F 42.2 °F 29.80 in ESE 5.0 mph 15.0 mph 26% 0.00 in 0.00 W/m2
02:29 80.2 °F 42.2 °F 29.80 in ESE 5.0 mph 11.0 mph 26% 0.00 in 0.00 W/m2
02:34 80.2 °F 42.2 °F 29.79 in ESE 5.0 mph 13.0 mph 26% 0.00 in 0.00 W/m2
02:39 80.2 °F 42.2 °F 29.79 in East 4.0 mph 14.0 mph 26% 0.00 in 0.00 W/m2
02:44 80.1 °F 42.2 °F 29.79 in ESE 5.0 mph 11.0 mph 26% 0.00 in 0.00 W/m2
02:49 80.0 °F 42.1 °F 29.79 in ESE 2.0 mph 12.0 mph 26% 0.00 in 0.00 W/m2
02:54 80.0 °F 42.1 °F 29.79 in ESE 6.0 mph 13.0 mph 26% 0.00 in 0.00 W/m2
02:59 79.9 °F 43.0 °F 29.79 in East 9.0 mph 15.0 mph 27% 0.00 in 0.00 W/m2
03:04 79.8 °F 41.9 °F 29.79 in Calm   13.0 mph 26% 0.00 in 0.00 W/m2
03:09 79.8 °F 41.9 °F 29.79 in ESE 6.0 mph 13.0 mph 26% 0.00 in 0.00 W/m2
03:15 79.8 °F 41.9 °F 29.79 in ESE 7.0 mph 13.0 mph 26% 0.00 in 0.00 W/m2
03:20 79.8 °F 42.9 °F 29.79 in ESE 6.0 mph 12.0 mph 27% 0.00 in 0.00 W/m2
03:25 79.7 °F 42.8 °F 29.79 in Calm   11.0 mph 27% 0.00 in 0.00 W/m2
03:30 79.7 °F 41.8 °F 29.78 in ESE 5.0 mph 14.0 mph 26% 0.00 in 0.00 W/m2
03:35 79.7 °F 42.8 °F 29.78 in East 7.0 mph 14.0 mph 27% 0.00 in 0.00 W/m2
03:40 79.7 °F 42.8 °F 29.78 in East 7.0 mph 14.0 mph 27% 0.00 in 0.00 W/m2
03:45 79.7 °F 42.8 °F 29.78 in Calm   14.0 mph 27% 0.00 in 0.00 W/m2
03:50 79.7 °F 42.8 °F 29.78 in ESE 2.0 mph 14.0 mph 27% 0.00 in 0.00 W/m2
03:55 79.7 °F 42.8 °F 29.78 in Calm   15.0 mph 27% 0.00 in 0.00 W/m2
04:00 79.7 °F 42.8 °F 29.78 in East 9.0 mph 14.0 mph 27% 0.00 in 0.00 W/m2
04:05 79.7 °F 42.8 °F 29.78 in East 4.0 mph 19.0 mph 27% 0.00 in 0.00 W/m2
04:10 79.7 °F 42.8 °F 29.78 in ESE 9.0 mph 16.0 mph 27% 0.00 in 0.00 W/m2
04:15 79.7 °F 42.8 °F 29.78 in East 9.0 mph 16.0 mph 27% 0.00 in 0.00 W/m2
04:20 79.7 °F 42.8 °F 29.78 in East 6.0 mph 14.0 mph 27% 0.00 in 0.00 W/m2
04:25 79.7 °F 42.8 °F 29.78 in ESE 2.0 mph 14.0 mph 27% 0.00 in 0.00 W/m2
04:30 79.6 °F 42.7 °F 29.78 in East 3.0 mph 18.0 mph 27% 0.00 in 0.00 W/m2
04:35 79.6 °F 42.7 °F 29.78 in East 4.0 mph 15.0 mph 27% 0.00 in 0.00 W/m2
04:40 79.6 °F 42.7 °F 29.78 in ENE 7.0 mph 19.0 mph 27% 0.00 in 0.00 W/m2
04:45 79.6 °F 42.7 °F 29.78 in East 16.0 mph 20.0 mph 27% 0.00 in 0.00 W/m2
04:50 79.5 °F 42.6 °F 29.78 in ESE 5.0 mph 19.0 mph 27% 0.00 in 0.00 W/m2
04:55 79.6 °F 42.7 °F 29.78 in East 11.0 mph 16.0 mph 27% 0.00 in 0.00 W/m2
05:00 79.6 °F 42.7 °F 29.77 in ESE 4.0 mph 15.0 mph 27% 0.00 in 0.00 W/m2
05:05 79.6 °F 42.7 °F 29.77 in ESE 5.0 mph 16.0 mph 27% 0.00 in 0.00 W/m2
05:10 79.6 °F 42.7 °F 29.77 in ESE 5.0 mph 18.0 mph 27% 0.00 in 0.00 W/m2
05:15 79.7 °F 42.8 °F 29.77 in ESE 8.0 mph 21.0 mph 27% 0.00 in 0.00 W/m2
05:20 79.7 °F 42.8 °F 29.77 in East 12.0 mph 18.0 mph 27% 0.00 in 0.00 W/m2
05:25 79.7 °F 42.8 °F 29.78 in ESE 7.0 mph 18.0 mph 27% 0.00 in 0.00 W/m2
05:30 79.7 °F 42.8 °F 29.78 in ESE 4.0 mph 17.0 mph 27% 0.00 in 0.00 W/m2
05:35 79.6 °F 42.7 °F 29.78 in East 5.0 mph 16.0 mph 27% 0.00 in 0.00 W/m2
05:40 79.5 °F 43.6 °F 29.78 in East 6.0 mph 15.0 mph 28% 0.00 in 0.00 W/m2
05:45 79.5 °F 43.6 °F 29.78 in ESE 9.0 mph 18.0 mph 28% 0.00 in 0.00 W/m2
05:47 79.4 °F 43.5 °F 29.78 in East 1.0 mph 11.0 mph 28% 0.00 in 0.00 W/m2
05:52 79.4 °F 43.5 °F 29.78 in Calm   15.0 mph 28% 0.00 in 0.00 W/m2
05:57 79.4 °F 43.5 °F 29.78 in ESE 7.0 mph 12.0 mph 28% 0.00 in 0.00 W/m2
06:02 79.4 °F 43.5 °F 29.78 in ESE 4.0 mph 15.0 mph 28% 0.00 in 0.00 W/m2
06:07 79.4 °F 43.5 °F 29.78 in ESE 8.0 mph 14.0 mph 28% 0.00 in 0.00 W/m2
06:12 79.4 °F 43.5 °F 29.78 in ESE 7.0 mph 13.0 mph 28% 0.00 in 0.00 W/m2
06:17 79.4 °F 43.5 °F 29.78 in East 12.0 mph 12.0 mph 28% 0.00 in 0.00 W/m2
06:22 79.5 °F 43.6 °F 29.78 in ESE 4.0 mph 9.0 mph 28% 0.00 in 0.00 W/m2
06:27 79.5 °F 43.6 °F 29.79 in East 1.0 mph 10.0 mph 28% 0.00 in 0.00 W/m2
06:32 79.6 °F 43.7 °F 29.79 in East 5.0 mph 13.0 mph 28% 0.00 in 5.00 W/m2
06:37 79.6 °F 43.7 °F 29.79 in Calm   15.0 mph 28% 0.00 in 7.00 W/m2
06:42 79.6 °F 43.7 °F 29.79 in Calm   15.0 mph 28% 0.00 in 11.00 W/m2
06:47 79.6 °F 43.7 °F 29.79 in Calm   9.0 mph 28% 0.00 in 12.00 W/m2
06:52 79.6 °F 43.7 °F 29.79 in East 1.0 mph 15.0 mph 28% 0.00 in 16.00 W/m2
06:57 79.6 °F 43.7 °F 29.79 in East 9.0 mph 14.0 mph 28% 0.00 in 23.00 W/m2
07:02 79.6 °F 43.7 °F 29.79 in ESE 1.0 mph 9.0 mph 28% 0.00 in 32.00 W/m2
07:07 79.6 °F 43.7 °F 29.79 in East 8.0 mph 15.0 mph 28% 0.00 in 42.00 W/m2
07:12 79.6 °F 44.6 °F 29.79 in East 11.0 mph 15.0 mph 29% 0.00 in 54.00 W/m2
07:17 79.6 °F 44.6 °F 29.80 in Calm   19.0 mph 29% 0.00 in 69.00 W/m2
07:22 79.6 °F 44.6 °F 29.80 in ESE 7.0 mph 15.0 mph 29% 0.00 in 84.00 W/m2
07:27 79.6 °F 44.6 °F 29.80 in ESE 8.0 mph 11.0 mph 29% 0.00 in 98.00 W/m2
07:32 79.6 °F 45.5 °F 29.80 in ESE 4.0 mph 11.0 mph 30% 0.00 in 113.00 W/m2
07:37 79.6 °F 45.5 °F 29.80 in ESE 5.0 mph 8.0 mph 30% 0.00 in 135.00 W/m2
07:42 79.5 °F 45.4 °F 29.80 in ESE 6.0 mph 12.0 mph 30% 0.00 in 149.00 W/m2
07:47 79.5 °F 45.4 °F 29.80 in ESE 7.0 mph 15.0 mph 30% 0.00 in 172.00 W/m2
07:52 79.5 °F 45.4 °F 29.80 in East 7.0 mph 14.0 mph 30% 0.00 in 190.00 W/m2
07:57 79.5 °F 46.2 °F 29.80 in East 12.0 mph 16.0 mph 31% 0.00 in 213.00 W/m2
08:02 79.5 °F 46.2 °F 29.80 in ESE 6.0 mph 13.0 mph 31% 0.00 in 236.00 W/m2
08:07 79.6 °F 46.3 °F 29.80 in East 4.0 mph 15.0 mph 31% 0.00 in 250.00 W/m2
08:12 79.6 °F 46.3 °F 29.81 in ESE 7.0 mph 13.0 mph 31% 0.00 in 271.00 W/m2
08:17 79.8 °F 46.5 °F 29.81 in ESE 1.0 mph 15.0 mph 31% 0.00 in 283.00 W/m2
08:22 79.9 °F 46.6 °F 29.81 in East 6.0 mph 9.0 mph 31% 0.00 in 306.00 W/m2
08:27 80.0 °F 46.7 °F 29.81 in ESE 2.0 mph 13.0 mph 31% 0.00 in 322.00 W/m2
08:32 80.2 °F 46.9 °F 29.81 in ESE 1.0 mph 14.0 mph 31% 0.00 in 338.00 W/m2
08:37 80.3 °F 47.8 °F 29.81 in ESE 1.0 mph 11.0 mph 32% 0.00 in 352.00 W/m2
08:42 80.5 °F 48.8 °F 29.81 in ESE 6.0 mph 7.0 mph 33% 0.00 in 366.00 W/m2
08:47 80.6 °F 48.0 °F 29.81 in East 7.0 mph 7.0 mph 32% 0.00 in 383.00 W/m2
08:52 80.8 °F 49.0 °F 29.81 in ESE 1.0 mph 8.0 mph 33% 0.00 in 401.00 W/m2
08:57 81.0 °F 49.2 °F 29.81 in ESE 1.0 mph 13.0 mph 33% 0.00 in 417.00 W/m2
09:02 81.2 °F 49.4 °F 29.81 in ESE 4.0 mph 9.0 mph 33% 0.00 in 432.00 W/m2
09:07 81.4 °F 49.6 °F 29.81 in Calm   8.0 mph 33% 0.00 in 450.00 W/m2
09:12 81.7 °F 49.0 °F 29.82 in SE 1.0 mph 6.0 mph 32% 0.00 in 462.00 W/m2
09:18 82.1 °F 49.3 °F 29.82 in SE 2.0 mph 12.0 mph 32% 0.00 in 476.00 W/m2
09:23 82.4 °F 49.6 °F 29.82 in SE 1.0 mph 8.0 mph 32% 0.00 in 490.00 W/m2
09:28 82.7 °F 49.9 °F 29.82 in SE 2.0 mph 6.0 mph 32% 0.00 in 504.00 W/m2
09:33 83.0 °F 50.1 °F 29.82 in SE 2.0 mph 9.0 mph 32% 0.00 in 519.00 W/m2
09:38 83.3 °F 49.5 °F 29.82 in SE 5.0 mph 7.0 mph 31% 0.00 in 534.00 W/m2
09:43 83.7 °F 49.9 °F 29.82 in SE 4.0 mph 8.0 mph 31% 0.00 in 550.00 W/m2
09:48 84.0 °F 50.2 °F 29.82 in SE 6.0 mph 8.0 mph 31% 0.00 in 563.00 W/m2
09:53 84.3 °F 49.5 °F 29.82 in SE 4.0 mph 7.0 mph 30% 0.00 in 575.00 W/m2
09:58 84.7 °F 49.0 °F 29.82 in SE 4.0 mph 7.0 mph 29% 0.00 in 591.00 W/m2
10:03 85.0 °F 49.2 °F 29.82 in Calm   8.0 mph 29% 0.00 in 603.00 W/m2
10:08 85.4 °F 48.6 °F 29.82 in SSE 4.0 mph 9.0 mph 28% 0.00 in 612.00 W/m2
10:13 85.9 °F 48.1 °F 29.82 in South 9.0 mph 10.0 mph 27% 0.00 in 624.00 W/m2
10:18 86.3 °F 49.4 °F 29.82 in SSW 1.0 mph 10.0 mph 28% 0.00 in 636.00 W/m2
10:23 86.8 °F 48.8 °F 29.82 in Calm   8.0 mph 27% 0.00 in 649.00 W/m2
10:28 87.3 °F 49.3 °F 29.82 in SSW 3.0 mph 8.0 mph 27% 0.00 in 661.00 W/m2
10:33 87.5 °F 49.4 °F 29.82 in SSW 4.0 mph 9.0 mph 27% 0.00 in 673.00 W/m2
10:38 87.9 °F 48.8 °F 29.82 in South 5.0 mph 10.0 mph 26% 0.00 in 682.00 W/m2
10:43 88.1 °F 48.9 °F 29.82 in South 7.0 mph 10.0 mph 26% 0.00 in 691.00 W/m2
10:48 88.4 °F 49.2 °F 29.82 in Calm   10.0 mph 26% 0.00 in 705.00 W/m2
10:53 88.7 °F 49.5 °F 29.82 in SSE 9.0 mph 10.0 mph 26% 0.00 in 715.00 W/m2
10:58 89.0 °F 49.7 °F 29.82 in South 5.0 mph 7.0 mph 26% 0.00 in 722.00 W/m2
11:03 89.3 °F 50.0 °F 29.83 in South 2.0 mph 7.0 mph 26% 0.00 in 731.00 W/m2
11:08 89.7 °F 52.3 °F 29.83 in SSW 7.0 mph 8.0 mph 28% 0.00 in 742.00 W/m2
11:13 90.1 °F 49.6 °F 29.83 in South 6.0 mph 8.0 mph 25% 0.00 in 747.00 W/m2
11:18 90.5 °F 51.0 °F 29.83 in WSW 3.0 mph 7.0 mph 26% 0.00 in 758.00 W/m2
11:23 90.9 °F 51.3 °F 29.82 in Calm   4.0 mph 26% 0.00 in 765.00 W/m2
11:28 91.2 °F 50.5 °F 29.82 in Calm   8.0 mph 25% 0.00 in 777.00 W/m2
11:33 91.5 °F 49.7 °F 29.82 in Calm   7.0 mph 24% 0.00 in 784.00 W/m2
11:38 91.9 °F 50.0 °F 29.82 in SSW 4.0 mph 12.0 mph 24% 0.00 in 596.00 W/m2
11:43 92.2 °F 49.1 °F 29.82 in South 6.0 mph 9.0 mph 23% 0.00 in 751.00 W/m2
11:53 92.8 °F 49.6 °F 29.82 in SW 4.0 mph 10.0 mph 23% 0.00 in 1007.00 W/m2
11:58 93.2 °F 51.1 °F 29.82 in South 4.0 mph 10.0 mph 24% 0.00 in 1028.00 W/m2
12:03 93.6 °F 50.3 °F 29.82 in SSW 5.0 mph 8.0 mph 23% 0.00 in 536.00 W/m2
12:08 93.8 °F 50.4 °F 29.82 in Calm   2.0 mph 23% 0.00 in 441.00 W/m2
12:13 94.0 °F 51.8 °F 29.82 in Calm   3.0 mph 24% 0.00 in 441.00 W/m2
12:18 93.9 °F 50.5 °F 29.82 in Calm   10.0 mph 23% 0.00 in 533.00 W/m2
12:23 93.6 °F 50.3 °F 29.82 in WSW 3.0 mph 6.0 mph 23% 0.00 in 445.00 W/m2
12:28 93.4 °F 51.2 °F 29.82 in WSW 2.0 mph 7.0 mph 24% 0.00 in 610.00 W/m2
12:33 93.4 °F 51.2 °F 29.82 in SW 6.0 mph 11.0 mph 24% 0.00 in 468.00 W/m2
12:38 93.5 °F 51.3 °F 29.82 in Calm   11.0 mph 24% 0.00 in 320.00 W/m2
12:44 93.5 °F 50.2 °F 29.82 in SSW 7.0 mph 10.0 mph 23% 0.00 in 536.00 W/m2
12:49 93.5 °F 50.2 °F 29.82 in South 2.0 mph 8.0 mph 23% 0.00 in 415.00 W/m2
12:54 93.8 °F 50.4 °F 29.82 in Calm   10.0 mph 23% 0.00 in 1032.00 W/m2
12:58 94.0 °F 51.8 °F 29.82 in SSW 6.0 mph 10.0 mph 24% 0.00 in 436.00 W/m2
13:03 94.2 °F 51.9 °F 29.82 in SW 2.0 mph 10.0 mph 24% 0.00 in 919.00 W/m2
13:08 94.7 °F 51.2 °F 29.82 in Calm   8.0 mph 23% 0.00 in 888.00 W/m2
13:13 95.1 °F 51.5 °F 29.82 in SSW 8.0 mph 14.0 mph 23% 0.00 in 756.00 W/m2
13:18 95.6 °F 50.7 °F 29.82 in South 2.0 mph 10.0 mph 22% 0.00 in 515.00 W/m2
13:23 96.0 °F 49.8 °F 29.81 in SSW 4.0 mph 9.0 mph 21% 0.00 in 515.00 W/m2
13:28 96.3 °F 50.0 °F 29.81 in SE 10.0 mph 12.0 mph 21% 0.00 in 969.00 W/m2
13:33 96.7 °F 50.4 °F 29.81 in South 1.0 mph 11.0 mph 21% 0.00 in 933.00 W/m2
13:38 97.1 °F 49.4 °F 29.81 in SSW 6.0 mph 13.0 mph 20% 0.00 in 445.00 W/m2
13:43 97.5 °F 49.7 °F 29.81 in Calm   6.0 mph 20% 0.00 in 570.00 W/m2
13:48 97.0 °F 49.3 °F 29.81 in Calm   6.0 mph 20% 0.00 in 563.00 W/m2
13:53 96.7 °F 50.4 °F 29.81 in Calm   6.0 mph 21% 0.00 in 338.00 W/m2
13:58 96.4 °F 50.1 °F 29.81 in SSW 5.0 mph 8.0 mph 21% 0.00 in 410.00 W/m2
14:03 96.2 °F 50.0 °F 29.81 in SSW 4.0 mph 8.0 mph 21% 0.00 in 436.00 W/m2
14:08 95.8 °F 53.2 °F 29.81 in SSW 5.0 mph 10.0 mph 24% 0.00 in 519.00 W/m2
14:13 95.5 °F 50.7 °F 29.81 in SSW 5.0 mph 10.0 mph 22% 0.00 in 417.00 W/m2
14:18 95.3 °F 50.5 °F 29.81 in SW 1.0 mph 14.0 mph 22% 0.00 in 512.00 W/m2
14:23 95.2 °F 51.6 °F 29.81 in SW 4.0 mph 7.0 mph 23% 0.00 in 462.00 W/m2
14:28 95.1 °F 51.5 °F 29.81 in SSW 6.0 mph 9.0 mph 23% 0.00 in 568.00 W/m2
14:33 95.0 °F 51.4 °F 29.80 in South 9.0 mph 11.0 mph 23% 0.00 in 789.00 W/m2
14:38 95.1 °F 50.3 °F 29.80 in Calm   4.0 mph 22% 0.00 in 729.00 W/m2
14:43 95.3 °F 51.7 °F 29.80 in SSE 5.0 mph 5.0 mph 23% 0.00 in 1018.00 W/m2
14:48 95.4 °F 52.9 °F 29.80 in West 3.0 mph 10.0 mph 24% 0.00 in 316.00 W/m2
14:53 95.3 °F 52.8 °F 29.79 in WSW 1.0 mph 9.0 mph 24% 0.00 in 879.00 W/m2
14:58 95.4 °F 54.0 °F 29.79 in WSW 4.0 mph 9.0 mph 25% 0.00 in 967.00 W/m2
15:03 95.5 °F 54.1 °F 29.79 in Calm   11.0 mph 25% 0.00 in 454.00 W/m2
15:08 95.2 °F 54.9 °F 29.79 in WSW 2.0 mph 7.0 mph 26% 0.00 in 814.00 W/m2
15:13 95.2 °F 54.9 °F 29.79 in SE 5.0 mph 10.0 mph 26% 0.00 in 698.00 W/m2
15:18 95.1 °F 54.9 °F 29.79 in Calm   8.0 mph 26% 0.00 in 766.00 W/m2
15:23 94.9 °F 54.7 °F 29.79 in Calm   6.0 mph 26% 0.00 in 721.00 W/m2
15:28 95.0 °F 54.8 °F 29.79 in WSW 2.0 mph 9.0 mph 26% 0.00 in 698.00 W/m2
15:33 95.1 °F 53.8 °F 29.79 in South 2.0 mph 11.0 mph 25% 0.00 in 673.00 W/m2
15:38 95.2 °F 51.6 °F 29.79 in Calm   7.0 mph 23% 0.00 in 661.00 W/m2
15:43 95.3 °F 54.0 °F 29.78 in SW 6.0 mph 6.0 mph 25% 0.00 in 640.00 W/m2
15:48 95.2 °F 53.9 °F 29.78 in SSW 11.0 mph 12.0 mph 25% 0.00 in 613.00 W/m2
15:53 95.2 °F 52.8 °F 29.78 in South 8.0 mph 10.0 mph 24% 0.00 in 617.00 W/m2
15:58 95.2 °F 52.8 °F 29.78 in Calm   6.0 mph 24% 0.00 in 603.00 W/m2
16:03 95.2 °F 53.9 °F 29.78 in Calm   7.0 mph 25% 0.00 in 580.00 W/m2
16:08 95.2 °F 53.9 °F 29.78 in South 5.0 mph 7.0 mph 25% 0.00 in 570.00 W/m2
16:13 95.1 °F 53.8 °F 29.78 in SSW 5.0 mph 8.0 mph 25% 0.00 in 559.00 W/m2
16:18 95.1 °F 52.7 °F 29.78 in SSW 1.0 mph 11.0 mph 24% 0.00 in 548.00 W/m2
16:23 95.0 °F 52.6 °F 29.78 in SW 7.0 mph 9.0 mph 24% 0.00 in 531.00 W/m2
16:28 94.9 °F 53.6 °F 29.78 in SSW 4.0 mph 10.0 mph 25% 0.00 in 522.00 W/m2
16:33 94.7 °F 51.2 °F 29.78 in Calm     23% 0.00 in 504.00 W/m2
16:38 94.5 °F 53.3 °F 29.78 in Calm   11.0 mph 25% 0.00 in 485.00 W/m2
16:43 94.4 °F 53.2 °F 29.78 in South 4.0 mph 10.0 mph 25% 0.00 in 480.00 W/m2
16:48 94.2 °F 51.9 °F 29.78 in SSW 1.0 mph 10.0 mph 24% 0.00 in 459.00 W/m2
16:53 94.1 °F 51.8 °F 29.78 in Calm   7.0 mph 24% 0.00 in 448.00 W/m2
16:58 94.0 °F 51.8 °F 29.78 in Calm   6.0 mph 24% 0.00 in 427.00 W/m2
17:03 93.9 °F 53.8 °F 29.78 in WSW 5.0 mph 7.0 mph 26% 0.00 in 413.00 W/m2
17:08 93.6 °F 53.6 °F 29.77 in Calm   10.0 mph 26% 0.00 in 399.00 W/m2
17:13 93.4 °F 53.4 °F 29.78 in SSW 4.0 mph 7.0 mph 26% 0.00 in 381.00 W/m2
17:18 93.3 °F 53.3 °F 29.77 in SSW 4.0 mph 9.0 mph 26% 0.00 in 369.00 W/m2
17:24 93.2 °F 54.3 °F 29.77 in Calm   9.0 mph 27% 0.00 in 353.00 W/m2
17:29 93.1 °F 53.2 °F 29.77 in Calm   6.0 mph 26% 0.00 in 338.00 W/m2
17:34 93.1 °F 53.2 °F 29.77 in Calm   9.0 mph 26% 0.00 in 322.00 W/m2
17:39 93.1 °F 53.2 °F 29.77 in SSW 6.0 mph 6.0 mph 26% 0.00 in 308.00 W/m2
17:44 93.0 °F 54.1 °F 29.77 in Calm   5.0 mph 27% 0.00 in 292.00 W/m2
17:49 92.9 °F 56.0 °F 29.77 in Calm   3.0 mph 29% 0.00 in 274.00 W/m2
17:54 92.8 °F 57.8 °F 29.77 in Calm   7.0 mph 31% 0.00 in 260.00 W/m2
17:59 92.5 °F 56.6 °F 29.77 in Calm   8.0 mph 30% 0.00 in 243.00 W/m2
18:09 91.9 °F 57.0 °F 29.77 in West 3.0 mph 6.0 mph 31% 0.00 in 213.00 W/m2
18:14 91.7 °F 57.7 °F 29.77 in WSW 5.0 mph 6.0 mph 32% 0.00 in 199.00 W/m2
18:19 91.4 °F 57.4 °F 29.77 in WSW 2.0 mph 6.0 mph 32% 0.00 in 181.00 W/m2
18:24 91.0 °F 57.1 °F 29.77 in Calm   1.0 mph 32% 0.00 in 167.00 W/m2
18:29 90.8 °F 57.8 °F 29.76 in Calm     33% 0.00 in 148.00 W/m2
18:34 90.5 °F 58.3 °F 29.76 in Calm   5.0 mph 34% 0.00 in 37.00 W/m2
18:39 90.2 °F 58.9 °F 29.76 in Calm   1.0 mph 35% 0.00 in 107.00 W/m2
18:44 89.9 °F 58.6 °F 29.76 in Calm     35% 0.00 in 79.00 W/m2
18:49 89.3 °F 58.1 °F 29.76 in Calm     35% 0.00 in 69.00 W/m2
18:54 88.9 °F 58.5 °F 29.77 in Calm   4.0 mph 36% 0.00 in 62.00 W/m2
18:59 88.3 °F 58.0 °F 29.77 in Calm     36% 0.00 in 51.00 W/m2
19:01 88.1 °F 57.8 °F 29.77 in Calm     36% 0.00 in 46.00 W/m2
19:06 87.7 °F 58.2 °F 29.77 in Calm   1.0 mph 37% 0.00 in 33.00 W/m2
19:11 87.3 °F 57.9 °F 29.77 in Calm     37% 0.00 in 25.00 W/m2
19:16 86.6 °F 58.0 °F 29.77 in Calm     38% 0.00 in 18.00 W/m2
19:21 86.1 °F 57.5 °F 29.77 in Calm     38% 0.00 in 14.00 W/m2
19:26 85.6 °F 57.1 °F 29.77 in Calm     38% 0.00 in 11.00 W/m2
19:32 85.4 °F 57.7 °F 29.77 in Calm     39% 0.00 in 7.00 W/m2
19:37 85.1 °F 57.4 °F 29.77 in Calm     39% 0.00 in 7.00 W/m2
19:42 84.7 °F 57.0 °F 29.77 in Calm   1.0 mph 39% 0.00 in 5.00 W/m2
19:47 84.4 °F 56.8 °F 29.77 in Calm     39% 0.00 in 0.00 W/m2
19:52 84.0 °F 56.4 °F 29.77 in Calm     39% 0.00 in 0.00 W/m2
19:57 83.3 °F 55.8 °F 29.77 in WSW 2.0 mph 2.0 mph 39% 0.00 in 0.00 W/m2
20:02 82.6 °F 55.9 °F 29.77 in Calm   1.0 mph 40% 0.00 in 0.00 W/m2
20:07 81.9 °F 55.9 °F 29.77 in Calm   2.0 mph 41% 0.00 in 0.00 W/m2
20:12 81.1 °F 55.9 °F 29.78 in Calm   1.0 mph 42% 0.00 in 0.00 W/m2
20:17 80.6 °F 55.4 °F 29.78 in Calm   4.0 mph 42% 0.00 in 0.00 W/m2
20:22 80.1 °F 55.0 °F 29.78 in Calm     42% 0.00 in 0.00 W/m2
20:27 79.8 °F 55.3 °F 29.78 in WSW 2.0 mph 3.0 mph 43% 0.00 in 0.00 W/m2
20:32 79.4 °F 55.0 °F 29.78 in Calm     43% 0.00 in 0.00 W/m2
20:37 79.2 °F 54.8 °F 29.78 in Calm   3.0 mph 43% 0.00 in 0.00 W/m2
20:42 79.1 °F 54.7 °F 29.78 in WSW 2.0 mph 4.0 mph 43% 0.00 in 0.00 W/m2
20:47 78.9 °F 54.5 °F 29.79 in SW 1.0 mph 1.0 mph 43% 0.00 in 0.00 W/m2
20:57 78.6 °F 53.6 °F 29.79 in SW 2.0 mph 2.0 mph 42% 0.00 in 0.00 W/m2
21:02 78.4 °F 52.8 °F 29.79 in SW 1.0 mph 3.0 mph 41% 0.00 in 0.00 W/m2
21:07 78.3 °F 52.0 °F 29.79 in SW 2.0 mph 4.0 mph 40% 0.00 in 0.00 W/m2
21:08 78.3 °F 52.0 °F 29.79 in SSW 3.0 mph 5.0 mph 40% 0.00 in 0.00 W/m2
21:13 78.3 °F 50.6 °F 29.79 in South 2.0 mph 6.0 mph 38% 0.00 in 0.00 W/m2
21:18 78.2 °F 50.5 °F 29.79 in SSE 1.0 mph 6.0 mph 38% 0.00 in 0.00 W/m2
21:23 78.2 °F 49.8 °F 29.79 in Calm   6.0 mph 37% 0.00 in 0.00 W/m2
21:28 78.1 °F 50.5 °F 29.80 in SSE 6.0 mph 6.0 mph 38% 0.00 in 0.00 W/m2
21:33 78.0 °F 50.4 °F 29.80 in Calm   6.0 mph 38% 0.00 in 0.00 W/m2
21:38 77.9 °F 50.3 °F 29.80 in SSE 4.0 mph 5.0 mph 38% 0.00 in 0.00 W/m2
21:43 77.9 °F 50.3 °F 29.80 in Calm   5.0 mph 38% 0.00 in 0.00 W/m2
21:48 77.9 °F 51.0 °F 29.80 in Calm   6.0 mph 39% 0.00 in 0.00 W/m2
21:53 77.8 °F 50.9 °F 29.80 in SSE 4.0 mph 6.0 mph 39% 0.00 in 0.00 W/m2
21:54 77.8 °F 50.9 °F 29.80 in SSE 1.0 mph 6.0 mph 39% 0.00 in 0.00 W/m2
21:59 77.8 °F 50.9 °F 29.80 in SSE 2.0 mph 5.0 mph 39% 0.00 in 0.00 W/m2
22:04 77.8 °F 50.9 °F 29.80 in Calm   5.0 mph 39% 0.00 in 0.00 W/m2
22:09 77.8 °F 50.9 °F 29.80 in Calm   4.0 mph 39% 0.00 in 0.00 W/m2
22:14 77.7 °F 50.8 °F 29.80 in SSE 4.0 mph 6.0 mph 39% 0.00 in 0.00 W/m2
22:19 77.7 °F 50.8 °F 29.80 in SSE 5.0 mph 5.0 mph 39% 0.00 in 0.00 W/m2
22:24 77.7 °F 50.8 °F 29.80 in Calm   6.0 mph 39% 0.00 in 0.00 W/m2
22:29 77.7 °F 51.5 °F 29.80 in SE 1.0 mph 5.0 mph 40% 0.00 in 0.00 W/m2
22:34 77.7 °F 51.5 °F 29.80 in SE 4.0 mph 5.0 mph 40% 0.00 in 0.00 W/m2
22:39 77.7 °F 51.5 °F 29.80 in SE 2.0 mph 5.0 mph 40% 0.00 in 0.00 W/m2
22:44 77.6 °F 52.1 °F 29.80 in SE 4.0 mph 5.0 mph 41% 0.00 in 0.00 W/m2
22:49 77.6 °F 52.7 °F 29.80 in Calm   5.0 mph 42% 0.00 in 0.00 W/m2
22:55 77.6 °F 53.4 °F 29.80 in SE 5.0 mph 6.0 mph 43% 0.00 in 0.00 W/m2
23:00 77.6 °F 53.4 °F 29.80 in SE 2.0 mph 5.0 mph 43% 0.00 in 0.00 W/m2
23:05 77.6 °F 53.4 °F 29.80 in Calm   6.0 mph 43% 0.00 in 0.00 W/m2
23:10 77.6 °F 54.0 °F 29.80 in ESE 1.0 mph 7.0 mph 44% 0.00 in 0.00 W/m2
23:15 77.5 °F 53.9 °F 29.80 in ESE 1.0 mph 7.0 mph 44% 0.00 in 0.00 W/m2
23:20 77.5 °F 53.9 °F 29.80 in ESE 6.0 mph 8.0 mph 44% 0.00 in 0.00 W/m2
23:30 77.5 °F 53.9 °F 29.80 in ESE 5.0 mph 9.0 mph 44% 0.00 in 0.00 W/m2
23:35 77.5 °F 54.5 °F 29.80 in ESE 7.0 mph 8.0 mph 45% 0.00 in 0.00 W/m2
23:40 77.5 °F 54.5 °F 29.80 in Calm   9.0 mph 45% 0.00 in 0.00 W/m2
23:45 77.4 °F 54.4 °F 29.80 in East 2.0 mph 11.0 mph 45% 0.00 in 0.00 W/m2
23:50 77.4 °F 54.4 °F 29.80 in ESE 5.0 mph 9.0 mph 45% 0.00 in 0.00 W/m2
23:55 77.3 °F 54.3 °F 29.80 in ESE 6.0 mph 9.0 mph 45% 0.00 in 0.00 W/m2
Foresthill Weather
 WU-history PHP script courtesy of   Juneau County Weather.
powered by Cumulus v1.9.3 (1059)
Ambient Weather VWS v14.00
Top Contact Website Map Copyright © 2007 - 2018 Foresthillweather.com Never base important decisions on this or any weather information obtained from the Internet